Time,TemperatureF,DewpointF,PressureIn,WindDirection,WindDirectionDegrees,WindSpeedMPH,WindSpeedGustMPH,Humidity,HourlyPrecipIn,Conditions,Clouds,dailyrainin,SolarRadiationWatts/m^2,SoftwareType,DateUTC
2013-02-15 00:19:00,37.4,35.3,29.79,South,189,3.0,3.0,92,0.00,,,0.00,0,Wunderground v.1.15,2013-02-15 05:19:00,
2013-02-15 00:29:00,37.0,34.9,29.78,South,171,2.0,2.0,92,0.00,,,0.00,0,Wunderground v.1.15,2013-02-15 05:29:00,
2013-02-15 00:39:00,36.8,35.0,29.78,South,169,2.0,2.0,93,0.00,,,0.00,0,Wunderground v.1.15,2013-02-15 05:39:00,
2013-02-15 00:49:00,36.7,35.1,29.78,SSE,167,1.0,2.0,94,0.00,,,0.00,0,Wunderground v.1.15,2013-02-15 05:49:00,
2013-02-15 00:59:00,36.5,34.9,29.78,SSE,167,0.0,1.0,94,0.00,,,0.00,0,Wunderground v.1.15,2013-02-15 05:59:00,
2013-02-15 01:09:00,36.8,35.2,29.78,South,187,1.0,1.0,94,0.00,,,0.00,0,Wunderground v.1.15,2013-02-15 06:09:00,
2013-02-15 01:19:00,37.7,35.6,29.78,South,186,3.0,3.0,92,0.00,,,0.00,0,Wunderground v.1.15,2013-02-15 06:19:00,
2013-02-15 01:29:00,38.7,36.0,29.78,WSW,238,5.0,6.0,90,0.00,,,0.00,0,Wunderground v.1.15,2013-02-15 06:29:00,
2013-02-15 01:39:00,39.2,35.9,29.78,West,279,4.0,7.0,88,0.00,,,0.00,0,Wunderground v.1.15,2013-02-15 06:39:00,
2013-02-15 01:49:00,39.3,35.5,29.78,West,263,5.0,7.0,86,0.00,,,0.00,0,Wunderground v.1.15,2013-02-15 06:49:00,
2013-02-15 01:59:00,39.3,35.2,29.78,WSW,253,6.0,8.0,85,0.00,,,0.00,0,Wunderground v.1.15,2013-02-15 06:59:00,
2013-02-15 02:09:00,39.1,35.0,29.79,WSW,248,4.0,6.0,85,0.00,,,0.00,0,Wunderground v.1.15,2013-02-15 07:09:00,
2013-02-15 02:19:00,39.0,34.3,29.79,WSW,240,5.0,5.0,83,0.00,,,0.00,0,Wunderground v.1.15,2013-02-15 07:19:00,
2013-02-15 02:29:00,38.8,33.8,29.79,SW,236,4.0,7.0,82,0.00,,,0.00,0,Wunderground v.1.15,2013-02-15 07:29:00,
2013-02-15 02:39:00,38.9,33.6,29.79,SW,234,6.0,6.0,81,0.00,,,0.00,0,Wunderground v.1.15,2013-02-15 07:39:00,
2013-02-15 02:49:00,39.1,33.1,29.79,WSW,247,6.0,8.0,79,0.00,,,0.00,0,Wunderground v.1.15,2013-02-15 07:49:00,
2013-02-15 02:59:00,38.8,32.5,29.79,WSW,238,5.0,7.0,78,0.00,,,0.00,0,Wunderground v.1.15,2013-02-15 07:59:00,
2013-02-15 03:09:00,38.6,32.0,29.79,WSW,247,4.0,5.0,77,0.00,,,0.00,0,Wunderground v.1.15,2013-02-15 08:09:00,
2013-02-15 03:19:00,38.5,31.9,29.79,WSW,246,5.0,5.0,77,0.00,,,0.00,0,Wunderground v.1.15,2013-02-15 08:19:00,
2013-02-15 03:29:00,38.6,31.4,29.79,WSW,244,6.0,7.0,75,0.00,,,0.00,0,Wunderground v.1.15,2013-02-15 08:29:00,
2013-02-15 03:39:00,38.6,31.0,29.79,NW,317,4.0,4.0,74,0.00,,,0.00,0,Wunderground v.1.15,2013-02-15 08:39:00,
2013-02-15 03:49:00,38.8,31.2,29.78,WNW,289,5.0,5.0,74,0.00,,,0.00,0,Wunderground v.1.15,2013-02-15 08:49:00,
2013-02-15 03:59:00,38.7,31.1,29.79,West,275,5.0,6.0,74,0.00,,,0.00,0,Wunderground v.1.15,2013-02-15 08:59:00,
2013-02-15 04:09:00,38.9,30.6,29.79,SW,236,6.0,6.0,72,0.00,,,0.00,0,Wunderground v.1.15,2013-02-15 09:09:00,
2013-02-15 04:19:00,38.8,28.8,29.79,West,265,7.0,11.0,67,0.00,,,0.00,0,Wunderground v.1.15,2013-02-15 09:19:00,
2013-02-15 04:29:00,39.0,28.2,29.79,WNW,290,9.0,9.0,65,0.00,,,0.00,0,Wunderground v.1.15,2013-02-15 09:29:00,
2013-02-15 04:39:00,38.9,28.1,29.80,West,262,9.0,9.0,65,0.00,,,0.00,0,Wunderground v.1.15,2013-02-15 09:39:00,
2013-02-15 04:49:00,38.8,27.7,29.80,WSW,257,11.0,11.0,64,0.00,,,0.00,0,Wunderground v.1.15,2013-02-15 09:49:00,
2013-02-15 04:59:00,38.7,27.6,29.81,SW,215,8.0,8.0,64,0.00,,,0.00,0,Wunderground v.1.15,2013-02-15 09:59:00,
2013-02-15 05:09:00,38.7,27.9,29.80,SW,221,9.0,18.0,65,0.00,,,0.00,0,Wunderground v.1.15,2013-02-15 10:09:00,
2013-02-15 05:19:00,38.4,28.0,29.81,WSW,244,7.0,12.0,66,0.00,,,0.00,0,Wunderground v.1.15,2013-02-15 10:19:00,
2013-02-15 05:29:00,38.4,27.7,29.81,SSW,197,12.0,12.0,65,0.00,,,0.00,0,Wunderground v.1.15,2013-02-15 10:29:00,
2013-02-15 05:39:00,38.2,27.8,29.81,SW,218,9.0,13.0,66,0.00,,,0.00,0,Wunderground v.1.15,2013-02-15 10:39:00,
2013-02-15 05:49:00,38.1,27.7,29.81,SW,223,10.0,15.0,66,0.00,,,0.00,0,Wunderground v.1.15,2013-02-15 10:49:00,
2013-02-15 05:59:00,38.1,27.7,29.81,WSW,257,10.0,10.0,66,0.00,,,0.00,0,Wunderground v.1.15,2013-02-15 10:59:00,
2013-02-15 06:09:00,38.0,27.6,29.82,SSW,203,10.0,10.0,66,0.00,,,0.00,0,Wunderground v.1.15,2013-02-15 11:09:00,
2013-02-15 06:19:00,37.9,27.5,29.82,SW,220,9.0,9.0,66,0.00,,,0.00,0,Wunderground v.1.15,2013-02-15 11:19:00,
2013-02-15 06:29:00,37.9,27.5,29.82,WSW,237,9.0,13.0,66,0.00,,,0.00,0,Wunderground v.1.15,2013-02-15 11:29:00,
2013-02-15 06:39:00,37.8,27.8,29.83,WNW,294,6.0,6.0,67,0.00,,,0.00,0,Wunderground v.1.15,2013-02-15 11:39:00,
2013-02-15 06:49:00,37.6,28.0,29.83,West,269,5.0,6.0,68,0.00,,,0.00,0,Wunderground v.1.15,2013-02-15 11:49:00,
2013-02-15 06:59:00,37.5,28.2,29.83,WSW,240,4.0,4.0,69,0.00,,,0.00,0,Wunderground v.1.15,2013-02-15 11:59:00,
2013-02-15 07:09:00,37.4,28.5,29.84,WSW,252,5.0,12.0,70,0.00,,,0.00,0,Wunderground v.1.15,2013-02-15 12:09:00,
2013-02-15 07:19:00,37.4,28.5,29.84,WSW,257,7.0,18.0,70,0.00,,,0.00,5,Wunderground v.1.15,2013-02-15 12:19:00,
2013-02-15 07:29:00,37.5,28.9,29.84,West,278,9.0,9.0,71,0.00,,,0.00,12,Wunderground v.1.15,2013-02-15 12:29:00,
2013-02-15 07:39:00,37.3,29.4,29.85,WNW,301,8.0,11.0,73,0.00,,,0.00,18,Wunderground v.1.15,2013-02-15 12:39:00,
2013-02-15 07:49:00,37.2,29.3,29.85,WNW,285,10.0,10.0,73,0.00,,,0.00,28,Wunderground v.1.15,2013-02-15 12:49:00,
2013-02-15 07:59:00,37.0,29.5,29.86,WNW,287,7.0,7.0,74,0.00,,,0.00,54,Wunderground v.1.15,2013-02-15 12:59:00,
2013-02-15 08:09:00,37.0,28.8,29.86,SW,228,9.0,10.0,72,0.00,,,0.00,74,Wunderground v.1.15,2013-02-15 13:09:00,
2013-02-15 08:19:00,37.2,28.7,29.87,West,273,10.0,10.0,71,0.00,,,0.00,153,Wunderground v.1.15,2013-02-15 13:19:00,
2013-02-15 08:29:00,37.2,28.7,29.88,West,279,10.0,16.0,71,0.00,,,0.00,123,Wunderground v.1.15,2013-02-15 13:29:00,
2013-02-15 08:39:00,37.1,28.6,29.88,WSW,253,11.0,11.0,71,0.00,,,0.00,125,Wunderground v.1.15,2013-02-15 13:39:00,
2013-02-15 08:49:00,37.4,28.9,29.88,West,260,8.0,8.0,71,0.00,,,0.00,364,Wunderground v.1.15,2013-02-15 13:49:00,
2013-02-15 08:59:00,37.2,28.7,29.88,West,278,8.0,10.0,71,0.00,,,0.00,95,Wunderground v.1.15,2013-02-15 13:59:00,
2013-02-15 09:09:00,36.8,29.0,29.89,West,272,10.0,10.0,73,0.00,,,0.00,79,Wunderground v.1.15,2013-02-15 14:09:00,
2013-02-15 09:29:00,36.6,29.1,29.90,WNW,290,8.0,11.0,74,0.00,,,0.00,118,Wunderground v.1.15,2013-02-15 14:29:00,
2013-02-15 09:39:00,37.0,28.5,29.90,West,278,10.0,10.0,71,0.00,,,0.00,127,Wunderground v.1.15,2013-02-15 14:39:00,
2013-02-15 09:49:00,37.0,27.4,29.90,West,275,11.0,11.0,68,0.00,,,0.00,123,Wunderground v.1.15,2013-02-15 14:49:00,
2013-02-15 09:59:00,37.0,27.8,29.91,SW,227,8.0,8.0,69,0.00,,,0.00,144,Wunderground v.1.15,2013-02-15 14:59:00,
2013-02-15 10:09:00,37.1,27.2,29.91,West,265,9.0,21.0,67,0.00,,,0.00,336,Wunderground v.1.15,2013-02-15 15:09:00,
2013-02-15 10:19:00,37.8,27.1,29.91,West,266,10.0,14.0,65,0.00,,,0.00,271,Wunderground v.1.15,2013-02-15 15:19:00,
2013-02-15 10:29:00,38.3,27.2,29.92,SW,227,11.0,11.0,64,0.00,,,0.00,666,Wunderground v.1.15,2013-02-15 15:29:00,
2013-02-15 10:39:00,38.2,26.7,29.92,West,267,11.0,11.0,63,0.00,,,0.00,425,Wunderground v.1.15,2013-02-15 15:39:00,
2013-02-15 10:49:00,38.2,27.5,29.92,NW,310,10.0,12.0,65,0.00,,,0.00,707,Wunderground v.1.15,2013-02-15 15:49:00,
2013-02-15 10:59:00,38.0,26.9,29.92,West,271,11.0,11.0,64,0.00,,,0.00,650,Wunderground v.1.15,2013-02-15 15:59:00,
2013-02-15 11:09:00,38.6,27.5,29.93,NW,313,8.0,8.0,64,0.00,,,0.00,715,Wunderground v.1.15,2013-02-15 16:09:00,
2013-02-15 11:19:00,37.8,27.1,29.93,West,271,10.0,16.0,65,0.00,,,0.00,153,Wunderground v.1.15,2013-02-15 16:19:00,
2013-02-15 11:29:00,36.8,26.9,29.94,WSW,253,11.0,11.0,67,0.00,,,0.00,480,Wunderground v.1.15,2013-02-15 16:29:00,
2013-02-15 11:39:00,38.3,26.8,29.93,West,278,11.0,11.0,63,0.00,,,0.00,881,Wunderground v.1.15,2013-02-15 16:39:00,
2013-02-15 11:49:00,38.0,26.9,29.93,WSW,254,11.0,11.0,64,0.00,,,0.00,237,Wunderground v.1.15,2013-02-15 16:49:00,
2013-02-15 11:59:00,37.3,26.6,29.93,WSW,238,8.0,9.0,65,0.00,,,0.00,578,Wunderground v.1.15,2013-02-15 16:59:00,
2013-02-15 12:09:00,37.8,26.7,29.93,West,277,10.0,17.0,64,0.00,,,0.00,701,Wunderground v.1.15,2013-02-15 17:09:00,
2013-02-15 12:19:00,37.9,26.4,29.93,WSW,240,9.0,9.0,63,0.00,,,0.00,731,Wunderground v.1.15,2013-02-15 17:19:00,
2013-02-15 12:29:00,37.5,25.7,29.93,WNW,302,11.0,11.0,62,0.00,,,0.00,796,Wunderground v.1.15,2013-02-15 17:29:00,
2013-02-15 12:39:00,37.6,25.4,29.93,WSW,240,10.0,10.0,61,0.00,,,0.00,192,Wunderground v.1.15,2013-02-15 17:39:00,
2013-02-15 12:49:00,37.5,24.9,29.94,West,280,10.0,10.0,60,0.00,,,0.00,686,Wunderground v.1.15,2013-02-15 17:49:00,
2013-02-15 12:59:00,36.6,24.4,29.94,WSW,248,10.0,14.0,61,0.00,,,0.00,153,Wunderground v.1.15,2013-02-15 17:59:00,
2013-02-15 13:09:00,37.9,24.8,29.93,West,264,10.0,10.0,59,0.00,,,0.00,819,Wunderground v.1.15,2013-02-15 18:09:00,
2013-02-15 13:19:00,38.0,24.5,29.93,NW,305,11.0,11.0,58,0.00,,,0.00,754,Wunderground v.1.15,2013-02-15 18:19:00,
2013-02-15 13:29:00,37.7,23.8,29.93,NW,305,9.0,9.0,57,0.00,,,0.00,216,Wunderground v.1.15,2013-02-15 18:29:00,
2013-02-15 13:39:00,37.1,24.1,29.93,WSW,250,7.0,8.0,59,0.00,,,0.00,267,Wunderground v.1.15,2013-02-15 18:39:00,
2013-02-15 13:49:00,37.7,25.1,29.94,WSW,245,6.0,15.0,60,0.00,,,0.00,244,Wunderground v.1.15,2013-02-15 18:49:00,
2013-02-15 13:59:00,37.5,24.9,29.93,West,267,7.0,7.0,60,0.00,,,0.00,605,Wunderground v.1.15,2013-02-15 18:59:00,
2013-02-15 14:09:00,38.2,24.7,29.93,SW,231,7.0,7.0,58,0.00,,,0.00,427,Wunderground v.1.15,2013-02-15 19:09:00,
2013-02-15 14:19:00,37.9,23.6,29.93,West,275,9.0,9.0,56,0.00,,,0.00,258,Wunderground v.1.15,2013-02-15 19:19:00,
2013-02-15 14:29:00,37.6,23.3,29.94,WSW,245,8.0,8.0,56,0.00,,,0.00,237,Wunderground v.1.15,2013-02-15 19:29:00,
2013-02-15 14:39:00,37.0,22.7,29.94,West,261,9.0,9.0,56,0.00,,,0.00,213,Wunderground v.1.15,2013-02-15 19:39:00,
2013-02-15 14:49:00,36.9,22.7,29.94,West,275,8.0,11.0,56,0.00,,,0.00,197,Wunderground v.1.15,2013-02-15 19:49:00,
2013-02-15 14:59:00,36.8,22.1,29.94,WSW,253,11.0,16.0,55,0.00,,,0.00,229,Wunderground v.1.15,2013-02-15 19:59:00,
2013-02-15 15:09:00,36.6,21.5,29.95,West,273,10.0,10.0,54,0.00,,,0.00,200,Wunderground v.1.15,2013-02-15 20:09:00,
2013-02-15 15:19:00,36.5,21.8,29.95,NW,306,7.0,7.0,55,0.00,,,0.00,200,Wunderground v.1.15,2013-02-15 20:19:00,
2013-02-15 15:29:00,36.2,21.6,29.95,SW,228,8.0,16.0,55,0.00,,,0.00,149,Wunderground v.1.15,2013-02-15 20:29:00,
2013-02-15 15:39:00,36.1,22.3,29.96,WNW,290,6.0,6.0,57,0.00,,,0.00,155,Wunderground v.1.15,2013-02-15 20:39:00,
2013-02-15 15:49:00,35.9,22.5,29.96,West,279,7.0,7.0,58,0.00,,,0.00,211,Wunderground v.1.15,2013-02-15 20:49:00,
2013-02-15 15:59:00,35.9,22.5,29.96,West,280,6.0,6.0,58,0.00,,,0.00,325,Wunderground v.1.15,2013-02-15 20:59:00,
2013-02-15 16:09:00,35.3,21.6,29.96,NW,307,6.0,16.0,57,0.00,,,0.00,162,Wunderground v.1.15,2013-02-15 21:09:00,
2013-02-15 16:19:00,35.2,21.9,29.97,SW,231,7.0,7.0,58,0.00,,,0.00,123,Wunderground v.1.15,2013-02-15 21:19:00,
2013-02-15 16:29:00,34.7,20.6,29.97,WNW,288,8.0,16.0,56,0.00,,,0.00,69,Wunderground v.1.15,2013-02-15 21:29:00,
2013-02-15 16:39:00,34.4,20.7,29.97,WNW,300,9.0,9.0,57,0.00,,,0.00,70,Wunderground v.1.15,2013-02-15 21:39:00,
2013-02-15 16:49:00,34.3,21.0,29.97,West,278,6.0,12.0,58,0.00,,,0.00,56,Wunderground v.1.15,2013-02-15 21:49:00,
2013-02-15 16:59:00,34.2,21.4,29.98,WNW,284,8.0,8.0,59,0.00,,,0.00,39,Wunderground v.1.15,2013-02-15 21:59:00,
2013-02-15 17:09:00,33.9,21.1,29.98,West,277,3.0,8.0,59,0.00,,,0.00,30,Wunderground v.1.15,2013-02-15 22:09:00,
2013-02-15 17:19:00,33.9,21.1,29.99,West,278,5.0,6.0,59,0.00,,,0.00,18,Wunderground v.1.15,2013-02-15 22:19:00,
2013-02-15 17:29:00,33.7,21.3,29.99,WSW,258,3.0,4.0,60,0.00,,,0.00,11,Wunderground v.1.15,2013-02-15 22:29:00,
2013-02-15 17:39:00,33.6,21.2,29.99,WNW,282,5.0,5.0,60,0.00,,,0.00,0,Wunderground v.1.15,2013-02-15 22:39:00,
2013-02-15 17:49:00,33.5,21.1,29.99,NW,306,4.0,8.0,60,0.00,,,0.00,0,Wunderground v.1.15,2013-02-15 22:49:00,
2013-02-15 17:59:00,33.3,21.3,30.00,WSW,254,6.0,10.0,61,0.00,,,0.00,0,Wunderground v.1.15,2013-02-15 22:59:00,
2013-02-15 18:09:00,33.2,22.0,30.00,West,276,4.0,4.0,63,0.00,,,0.00,0,Wunderground v.1.15,2013-02-15 23:09:00,
2013-02-15 18:19:00,33.0,21.8,30.00,WSW,238,5.0,5.0,63,0.00,,,0.00,0,Wunderground v.1.15,2013-02-15 23:19:00,
2013-02-15 18:29:00,32.7,21.9,30.00,WNW,303,3.0,3.0,64,0.00,,,0.00,0,Wunderground v.1.15,2013-02-15 23:29:00,
2013-02-15 18:39:00,32.5,22.0,30.00,WSW,248,3.0,3.0,65,0.00,,,0.00,0,Wunderground v.1.15,2013-02-15 23:39:00,
2013-02-15 18:49:00,32.3,21.8,30.01,WSW,238,2.0,2.0,65,0.00,,,0.00,0,Wunderground v.1.15,2013-02-15 23:49:00,
2013-02-15 18:59:00,32.1,22.0,30.01,West,270,2.0,2.0,66,0.00,,,0.00,0,Wunderground v.1.15,2013-02-15 23:59:00,
2013-02-15 19:09:00,32.0,22.3,30.01,WNW,285,2.0,2.0,67,0.00,,,0.00,0,Wunderground v.1.15,2013-02-16 00:09:00,
2013-02-15 19:19:00,31.8,22.4,30.01,West,272,2.0,2.0,68,0.00,,,0.00,0,Wunderground v.1.15,2013-02-16 00:19:00,
2013-02-15 19:29:00,31.6,22.9,30.01,NW,319,2.0,4.0,70,0.00,,,0.00,0,Wunderground v.1.15,2013-02-16 00:29:00,
2013-02-15 19:39:00,31.0,22.7,30.01,WNW,294,4.0,4.0,71,0.00,,,0.00,0,Wunderground v.1.15,2013-02-16 00:39:00,
2013-02-15 19:49:00,30.6,22.6,30.02,NNW,327,5.0,8.0,72,0.00,,,0.00,0,Wunderground v.1.15,2013-02-16 00:49:00,
2013-02-15 19:59:00,30.3,22.7,30.02,WNW,296,6.0,6.0,73,0.00,,,0.00,0,Wunderground v.1.15,2013-02-16 00:59:00,
2013-02-15 20:09:00,30.1,22.8,30.03,North,350,6.0,6.0,74,0.00,,,0.00,0,Wunderground v.1.15,2013-02-16 01:09:00,
2013-02-15 20:19:00,29.9,22.6,30.03,NNW,335,5.0,6.0,74,0.00,,,0.00,0,Wunderground v.1.15,2013-02-16 01:19:00,
2013-02-15 20:29:00,29.9,22.6,30.03,NW,306,5.0,5.0,74,0.00,,,0.00,0,Wunderground v.1.15,2013-02-16 01:29:00,
2013-02-15 20:39:00,29.7,22.4,30.03,NW,324,6.0,6.0,74,0.00,,,0.00,0,Wunderground v.1.15,2013-02-16 01:39:00,
2013-02-15 20:49:00,29.5,21.6,30.04,NW,310,6.0,7.0,72,0.00,,,0.00,0,Wunderground v.1.15,2013-02-16 01:49:00,
2013-02-15 20:59:00,29.1,20.9,30.04,NW,320,5.0,6.0,71,0.00,,,0.00,0,Wunderground v.1.15,2013-02-16 01:59:00,
2013-02-15 21:09:00,28.7,20.8,30.05,NW,307,7.0,8.0,72,0.00,,,0.00,0,Wunderground v.1.15,2013-02-16 02:09:00,
2013-02-15 21:19:00,28.4,20.5,30.05,NW,308,6.0,8.0,72,0.00,,,0.00,0,Wunderground v.1.15,2013-02-16 02:19:00,
2013-02-15 21:29:00,28.4,19.9,30.04,NW,325,5.0,5.0,70,0.00,,,0.00,0,Wunderground v.1.15,2013-02-16 02:29:00,
2013-02-15 21:39:00,28.5,19.6,30.05,SW,227,5.0,5.0,69,0.00,,,0.00,0,Wunderground v.1.15,2013-02-16 02:39:00,
2013-02-15 21:49:00,28.4,18.8,30.05,WSW,250,5.0,5.0,67,0.00,,,0.00,0,Wunderground v.1.15,2013-02-16 02:49:00,
2013-02-15 21:59:00,28.4,18.5,30.05,WNW,298,4.0,4.0,66,0.00,,,0.00,0,Wunderground v.1.15,2013-02-16 02:59:00,
2013-02-15 22:09:00,28.3,18.0,30.05,NW,319,4.0,6.0,65,0.00,,,0.00,0,Wunderground v.1.15,2013-02-16 03:09:00,
2013-02-15 22:19:00,28.2,18.3,30.04,WSW,244,3.0,10.0,66,0.00,,,0.00,0,Wunderground v.1.15,2013-02-16 03:19:00,
2013-02-15 22:29:00,28.1,18.5,30.05,WNW,303,4.0,4.0,67,0.00,,,0.00,0,Wunderground v.1.15,2013-02-16 03:29:00,
2013-02-15 22:39:00,28.0,18.5,30.05,NNW,335,4.0,4.0,67,0.00,,,0.00,0,Wunderground v.1.15,2013-02-16 03:39:00,
2013-02-15 22:49:00,27.9,18.4,30.05,NW,321,5.0,5.0,67,0.00,,,0.00,0,Wunderground v.1.15,2013-02-16 03:49:00,
2013-02-15 22:59:00,27.7,18.5,30.05,West,269,4.0,4.0,68,0.00,,,0.00,0,Wunderground v.1.15,2013-02-16 03:59:00,
2013-02-15 23:09:00,27.6,18.4,30.05,WNW,287,3.0,5.0,68,0.00,,,0.00,0,Wunderground v.1.15,2013-02-16 04:09:00,
2013-02-15 23:19:00,27.5,18.3,30.05,WSW,256,3.0,3.0,68,0.00,,,0.00,0,Wunderground v.1.15,2013-02-16 04:19:00,
2013-02-15 23:29:00,27.5,18.7,30.05,West,261,5.0,7.0,69,0.00,,,0.00,0,Wunderground v.1.15,2013-02-16 04:29:00,
2013-02-15 23:39:00,27.3,18.5,30.05,SW,231,4.0,7.0,69,0.00,,,0.00,0,Wunderground v.1.15,2013-02-16 04:39:00,
2013-02-15 23:49:00,27.2,18.7,30.05,WNW,284,3.0,4.0,70,0.00,,,0.00,0,Wunderground v.1.15,2013-02-16 04:49:00,